Lake Powell Weather Center

Moon Phase Calendar



Lake Powell Water Level
Online Cameras

 


      

Current Conditions in Clay Hills Crossing
2/3/2023 1:51:12 PM

41°F
Feels Like 41
Clouds
Humidity
41%
Pressure
30.42"
Wind
1.2 mph (E)
Dew Point
21°F
UV Index
2/10 (Low)
Visibility
6 mi

Hourly Forecast

Date & Time Fri, Feb 3
1:00 PM
Fri, Feb 3
2:00 PM
Fri, Feb 3
3:00 PM
Fri, Feb 3
4:00 PM
Fri, Feb 3
5:00 PM
Fri, Feb 3
6:00 PM
Fri, Feb 3
7:00 PM
Fri, Feb 3
8:00 PM
Fri, Feb 3
9:00 PM
Fri, Feb 3
10:00 PM
Fri, Feb 3
11:00 PM
Sat, Feb 4
12:00 AM
Sat, Feb 4
1:00 AM
Sat, Feb 4
2:00 AM
Sat, Feb 4
3:00 AM
Sat, Feb 4
4:00 AM
Sat, Feb 4
5:00 AM
Sat, Feb 4
6:00 AM
Sat, Feb 4
7:00 AM
Sat, Feb 4
8:00 AM
Sat, Feb 4
9:00 AM
Sat, Feb 4
10:00 AM
Sat, Feb 4
11:00 AM
Sat, Feb 4
12:00 PM
Sat, Feb 4
1:00 PM
Sat, Feb 4
2:00 PM
Sat, Feb 4
3:00 PM
Sat, Feb 4
4:00 PM
Sat, Feb 4
5:00 PM
Sat, Feb 4
6:00 PM
Sat, Feb 4
7:00 PM
Sat, Feb 4
8:00 PM
Sat, Feb 4
9:00 PM
Sat, Feb 4
10:00 PM
Sat, Feb 4
11:00 PM
Sun, Feb 5
12:00 AM
Sun, Feb 5
1:00 AM
Sun, Feb 5
2:00 AM
Sun, Feb 5
3:00 AM
Sun, Feb 5
4:00 AM
Sun, Feb 5
5:00 AM
Sun, Feb 5
6:00 AM
Sun, Feb 5
7:00 AM
Sun, Feb 5
8:00 AM
Sun, Feb 5
9:00 AM
Sun, Feb 5
10:00 AM
Sun, Feb 5
11:00 AM
Sun, Feb 5
12:00 PM
Condition
Clouds

Clouds

Clouds

Clouds

Clouds

Clouds

Clouds

Clouds

Clouds

Clouds

Clouds

Clouds

Clouds

Clouds

Clouds

Clouds

Clouds

Clouds

Clouds

Clouds

Clouds

Clouds

Clouds

Clouds

Clouds

Clouds

Clouds

Clouds

Clouds

Clouds

Clouds

Clouds

Clouds

Clouds

Clouds

Clouds

Clouds

Clouds

Clouds

Clouds

Clouds

Clouds

Clouds

Clouds

Clouds

Clouds

Clouds

Clear
Temperature 41°F41°F41°F41°F41°F39°F38°F38°F38°F38°F38°F37°F36°F36°F35°F35°F35°F34°F33°F35°F38°F40°F42°F43°F45°F46°F47°F48°F47°F44°F43°F42°F41°F40°F40°F39°F38°F38°F37°F37°F36°F36°F36°F37°F40°F42°F44°F46°F
Feels Like 41°F41°F41°F41°F41°F39°F38°F38°F38°F38°F38°F37°F36°F36°F35°F35°F35°F34°F33°F35°F38°F40°F42°F43°F45°F46°F47°F48°F47°F44°F43°F42°F41°F40°F40°F39°F38°F38°F37°F37°F36°F36°F36°F37°F40°F42°F44°F46°F
Cloudiness 97%97%97%97%98%99%100%100%100%100%100%100%100%100%100%100%100%96%50%34%25%20%17%25%18%16%18%16%30%100%100%100%100%100%99%97%99%99%96%97%97%100%94%67%51%41%34%0%
Visibility 6 mi6 mi6 mi6 mi6 mi6 mi6 mi6 mi6 mi6 mi6 mi6 mi6 mi6 mi6 mi6 mi6 mi6 mi6 mi6 mi6 mi6 mi6 mi6 mi6 mi6 mi6 mi6 mi6 mi6 mi6 mi6 mi6 mi6 mi6 mi6 mi6 mi6 mi6 mi6 mi6 mi6 mi6 mi6 mi6 mi6 mi6 mi6 mi
Precipitation 0%0%0%0%0%0%0%0%0%0%0%0%0%0%0%0%0%0%0%0%0%0%0%0%0%0%0%0%0%0%0%0%0%0%0%0%0%0%0%0%0%0%0%0%0%0%0%0%
Humidity 42%41%41%42%45%49%51%51%52%52%53%54%55%56%57%58%58%59%61%60%51%48%46%43%41%39%37%37%40%46%47%48%49%50%51%52%53%54%56%57%57%59%60%60%52%49%45%42%
Dew Point 21°F21°F21°F21°F22°F23°F21°F21°F21°F21°F21°F21°F21°F21°F21°F21°F21°F21°F21°F21°F21°F22°F22°F22°F22°F22°F22°F22°F23°F24°F23°F23°F23°F23°F22°F22°F22°F22°F22°F22°F22°F22°F23°F23°F24°F24°F24°F24°F
Pressure 30.42"30.42"30.42"30.39"30.39"30.36"30.36"30.36"30.36"30.33"30.33"30.33"30.3"30.3"30.3"30.27"30.27"30.27"30.3"30.3"30.3"30.3"30.3"30.3"30.24"30.21"30.18"30.18"30.18"30.18"30.21"30.21"30.21"30.21"30.21"30.21"30.18"30.18"30.15"30.15"30.15"30.12"30.15"30.15"30.12"30.09"30.09"30.03"
Wind Speed 1.4 mph1.2 mph1 mph1.1 mph1.5 mph2.7 mph1.7 mph1.5 mph1.7 mph1.2 mph0.8 mph2.2 mph2.4 mph0.5 mph0.6 mph0.8 mph1 mph0.8 mph1.6 mph1.1 mph1.9 mph1.8 mph1.5 mph1.4 mph1.2 mph1.6 mph1.6 mph1.9 mph2 mph2.1 mph1.9 mph2.1 mph2.1 mph1.6 mph0.8 mph0.6 mph0.3 mph0.9 mph1.1 mph1.1 mph1.1 mph1.7 mph2 mph2 mph2.1 mph2.1 mph1.5 mph3 mph
Wind
Direction
85°
E
99°
E
72°
ENE
86°
E
359°
N
343°
NNW

N

N
337°
NNW
339°
NNW
342°
NNW
348°
NNW
328°
NNW
317°
NW
125°
SE
168°
SSE
199°
SSW
54°
NE
26°
NNE
52°
NE
44°
NE
45°
NE
52°
NE
79°
E
117°
ESE
133°
SE
133°
SE
114°
ESE
92°
E
62°
ENE
16°
NNE

N
341°
NNW

N
25°
NNE
304°
NW
56°
NE
72°
ENE
62°
ENE
81°
E
64°
ENE
77°
ENE
112°
ESE
123°
ESE
130°
SE
139°
SE
132°
SE
152°
SSE

Daily Forecast

Date High Low Precip. Humidity
Today
Feb 3

Clouds
41 °F
32 °F
0%
42%
Saturday
Feb 4

Clouds
48 °F
33 °F
0%
43%
Sunday
Feb 5

Clear
53 °F
36 °F
0%
42%
Monday
Feb 6

Clouds
48 °F
36 °F
7%
42%
Tuesday
Feb 7

Clear
46 °F
34 °F
0%
38%
Wednesday
Feb 8

Clear
49 °F
34 °F
0%
34%
Thursday
Feb 9

Clouds
51 °F
34 °F
0%
35%
Friday
Feb 10

Clear
43 °F
31 °F
0%
20%
Saturday
Feb 11

Clear
45 °F
32 °F
0%
22%
Sunday
Feb 12

Rain
48 °F
35 °F
35%
27%
Monday
Feb 13

Clouds
46 °F
35 °F
0%
48%
Tuesday
Feb 14

Clear
50 °F
35 °F
0%
43%
Wednesday
Feb 15

Clouds
50 °F
39 °F
8%
49%
Thursday
Feb 16

Clouds
51 °F
37 °F
0%
41%
Friday
Feb 17

Clear
55 °F
37 °F
1%
37%
Saturday
Feb 18

Clear
51 °F
38 °F
12%
45%

Temperature 8-14 Day Outlook



Precipitation 8-14 Day Outlook






About Us
Contact Us
Site Map
Search Site
Advertise With Us
   
Powell.USLakes.info
THE LAKE POWELL WEBSITE

Copyright 2023, Lakes Online
Privacy    |    Legal